Location: Bryzozowice
(50.3667°N, 18.9667°E)
Time: 14:00:57
(UTC+00:00)

Cosmos 2219 - Pass Details

Date: 24 January 2020
Orbit: 833 x 860 km, 71.1° (Epoch: 16 February)

Event Time Altitude Azimuth Distance (km) Brightness Sun altitude
Rises 15:47:01 0° 182° (S) 3,367 6.7 -4.3°
Reaches altitude 10° 15:49:34 10° 174° (S) 2,439 5.9 -4.7°
Maximum altitude 15:54:42 39° 108° (ESE) 1,244 3.8 -5.4°
Drops below altitude 10° 15:59:53 10° 41° (NE) 2,466 5.1 -6.2°
Enters shadow 16:01:44 - 36° (NE) 3,133 5.6 -6.4°
